This is the latest recevied weather packets stored in our database for station/object DR0T. If no packets are shown the sender has not sent any weather packets the latest 1 day(s).
| Time | Temp. | Humidity | Pressure | Rain* | Wind** | Luminosity | Snow |
|---|---|---|---|---|---|---|---|
| 1777999655 | 12.22° C | 95% | 1008.4 hPa | 0 mm | 0 m/s | - | - |
| 1777999354 | 12.78° C | 95% | 1008.6 hPa | 0 mm | 0.89 m/s, 222° | - | - |
| 1777999055 | 12.78° C | 94% | 1008.6 hPa | 0 mm | 0.89 m/s, 212° | - | - |
| 1777998755 | 12.78° C | 93% | 1008.6 hPa | 0 mm | 0.45 m/s, 211° | - | - |
| 1777997547 | 12.78° C | 92% | 1008.4 hPa | 0 mm | 0 m/s | - | - |
| 1777996950 | 12.78° C | 92% | 1008.4 hPa | 0 mm | 0 m/s | - | - |
| 1777995139 | 12.22° C | 93% | 1008.7 hPa | 0 mm | 0 m/s | - | - |
| 1777994836 | 12.78° C | 93% | 1008.8 hPa | 0 mm | 0.45 m/s, 223° | - | - |
| 1777994555 | 12.78° C | 93% | 1008.9 hPa | 0 mm | 0.89 m/s, 227° | - | - |
| 1777994253 | 12.78° C | 93% | 1008.8 hPa | 0 mm | 1.34 m/s, 236° | - | - |
| 1777993952 | 12.78° C | 92% | 1008.8 hPa | 0 mm | 1.34 m/s, 235° | - | - |
| 1777993653 | 12.78° C | 91% | 1008.9 hPa | 0 mm | 1.79 m/s, 233° | - | - |
| 1777993352 | 12.78° C | 89% | 1008.9 hPa | 0 mm | 1.79 m/s, 244° | - | - |
| 1777993051 | 12.78° C | 90% | 1009 hPa | 0 mm | 2.24 m/s, 245° | - | - |
| 1777992747 | 12.78° C | 90% | 1009.1 hPa | 0 mm | 2.24 m/s, 242° | - | - |
| 1777992447 | 12.78° C | 89% | 1009 hPa | 0 mm | 2.68 m/s, 246° | - | - |
| 1777992147 | 13.33° C | 90% | 1008.9 hPa | 0 mm | 3.13 m/s, 246° | - | - |
| 1777991846 | 13.33° C | 90% | 1009 hPa | 0 mm | 3.13 m/s, 245° | - | - |
| 1777991542 | 13.33° C | 90% | 1009 hPa | 0 mm | 3.13 m/s, 240° | - | - |
| 1777991241 | 13.33° C | 89% | 1008.9 hPa | 0 mm | 3.58 m/s, 243° | - | - |
| 1777990942 | 13.89° C | 87% | 1008.9 hPa | 0 mm | 2.68 m/s, 245° | - | - |
| 1777990641 | 13.89° C | 85% | 1008.9 hPa | 0 mm | 3.13 m/s, 243° | - | - |
| 1777990337 | 13.89° C | 85% | 1009 hPa | 0 mm | 2.68 m/s, 248° | - | - |
| 1777990036 | 14.44° C | 84% | 1009 hPa | 0 mm | 2.68 m/s, 244° | - | - |
| 1777989755 | 14.44° C | 82% | 1009.1 hPa | 0 mm | 2.24 m/s, 247° | - | - |
* Rain latest hour (hover to see other rain measurements)
** Current wind speed in m/s (hover to see current wind gust speed)